National Weather Service United States Department of Commerce

Latest Hourly Weather Roundup

TOPSWRTT 000
TTAA00 KICT 250612

Wichita AWIPS Roundup
National Weather Service Wichita KS
100 AM CDT THU MAY 25 2017

....Central Kansas....
  
CITY           SKY/WX    TMP DP  RH WIND       PRES   REMARKS
RUSSELL        CLEAR     53  45  74 SE15      29.63F                  
6HR MIN TEMP:  52; 6HR MAX TEMP:  67;                                

SALINA         CLEAR     53  46  77 SE7       29.68S                  
6HR MIN TEMP:  50; 6HR MAX TEMP:  68;                                

GREAT BEND     CLEAR     53  45  74 SE10      29.66F                  
6HR MIN TEMP:  53; 6HR MAX TEMP:  67;                                

ELLSWORTH      CLEAR     52  45  76 SE7       29.66S                  
MCPHERSON      CLEAR     52  45  76 SE7       29.68F                  
HAYS           CLEAR     53  46  77 SE12      29.64S                  
6HR MIN TEMP:  52; 6HR MAX TEMP:  68;                                


....South Central Kansas....
  
CITY           SKY/WX    TMP DP  RH WIND       PRES   REMARKS
HUTCHINSON     CLEAR     50  45  83 E6        29.68F                  
6HR MIN TEMP:  49; 6HR MAX TEMP:  67;                                

NEWTON         CLEAR     50  45  83 SE6       29.71R                  
6HR MIN TEMP:  49; 6HR MAX TEMP:  65;                                

KINGMAN        CLEAR     54  46  76 SE7       29.69R                  
WICHITA (ICT)  CLEAR     50  44  80 S5        29.70R                  
6HR MIN TEMP:  50; 6HR MAX TEMP:  67;                                

JABARA ARPT    CLEAR     50  44  80 S6        29.70R                  
6HR MIN TEMP:  50; 6HR MAX TEMP:  66;                                

MCCONNELL AFB  CLEAR     53  43  70 S5        29.70R                  
6HR MIN TEMP:  53; 6HR MAX TEMP:  66;                                

BENTON         FAIR      49  45  84 S9        29.70S                  
6HR MIN TEMP:  49; 6HR MAX TEMP:  65;                                

EL DORADO      FAIR      50  45  81 SE5       29.69F                  
AUGUSTA        FAIR      50  45  81 SE3       29.70R                  
HARPER         NOT AVBL                                               
WELLINGTON     CLEAR     50  46  87 CALM      29.70S                  
WINFIELD       CLEAR     49  44  83 S5        29.72R                  
6HR MIN TEMP:  47; 6HR MAX TEMP:  67;                                

 
....Southeast Kansas....
  
CITY           SKY/WX    TMP DP  RH WIND       PRES   REMARKS
EUREKA         CLEAR     54  48  82 CALM      29.71F                  
IOLA           FAIR      49  46  90 CALM      29.72S                  
6HR MIN TEMP:  48; 6HR MAX TEMP:  67;                                

CHANUTE        CLEAR     51  46  83 S3        29.72R                  
6HR MIN TEMP:  50; 6HR MAX TEMP:  67;                                

PARSONS        CLEAR     48  46  93 CALM      29.73S                  
6HR MIN TEMP:  47; 6HR MAX TEMP:  67;                                

COFFEYVILLE    CLEAR     49  48  97 SE3       29.72S                  
6HR MIN TEMP:  49; 6HR MAX TEMP:  68;                                

INDEPENDENCE   CLEAR     50  46  87 CALM      29.72S                  
FORT SCOTT     CLEAR     46  45  93 CALM      29.71R                  
PITTSBURG      CLEAR     52  52 100 CALM      29.71S                  

....Western Kansas....
  
CITY           SKY/WX    TMP DP  RH WIND       PRES   REMARKS
GOODLAND       CLEAR     56  46  69 S16       29.57F                  
6HR MIN TEMP:  56; 6HR MAX TEMP:  75;                                

HILL CITY      CLEAR     54  46  74 S10       29.62F                  
6HR MIN TEMP:  53; 6HR MAX TEMP:  71;                                

LIBERAL        CLEAR     56  49  77 SE13      29.65S                  
6HR MIN TEMP:  56; 6HR MAX TEMP:  78;                                

GARDEN CITY    CLEAR     56  43  61 S14G25    29.63S                  
6HR MIN TEMP:  56; 6HR MAX TEMP:  75;                                

DODGE CITY     CLEAR     54  44  69 S14       29.65F                  
6HR MIN TEMP:  54; 6HR MAX TEMP:  72;                                

PRATT          CLEAR     51  42  72 SE8       29.68S                  
6HR MIN TEMP:  50; 6HR MAX TEMP:  66;                                

MEDICINE LODGE   N/A     53  45  74 SE7       29.69R                  
6HR MIN TEMP:  53; 6HR MAX TEMP:  70;                                


....Northeast Kansas....
  
CITY           SKY/WX    TMP DP  RH WIND       PRES   REMARKS
CONCORDIA      CLEAR     48  45  89 S8        29.66F                  
6HR MIN TEMP:  48; 6HR MAX TEMP:  65;                                

TOPEKA         CLEAR     52  51  97 CALM      29.70S                  
6HR MIN TEMP:  52; 6HR MAX TEMP:  69;                                

MANHATTAN      CLEAR     47  46  97 CALM      29.69F                  
6HR MIN TEMP:  46; 6HR MAX TEMP:  68;                                

LAWRENCE       CLEAR     48  48 100 CALM      29.70F                  
6HR MIN TEMP:  48; 6HR MAX TEMP:  67;                                

OLATHE         CLEAR     50  49  96 CALM      29.70F                  
6HR MIN TEMP:  50; 6HR MAX TEMP:  65;                                

EMPORIA        CLEAR     50  46  86 S6        29.70F                  
6HR MIN TEMP:  48; 6HR MAX TEMP:  66;                                


....Oklahoma....
  
CITY           SKY/WX    TMP DP  RH WIND       PRES   REMARKS
GAGE           CLEAR     59  46  62 SE10      29.66F                  
6HR MIN TEMP:  59; 6HR MAX TEMP:  78;                                

PONCA CITY     CLEAR     53  43  68 SE7       29.70F                  
6HR MIN TEMP:  50; 6HR MAX TEMP:  69;                                

BARTLESVILLE   CLEAR     46  44  93 CALM      29.73S                  
6HR MIN TEMP:  46; 6HR MAX TEMP:  67;                                

TULSA          CLEAR     55  49  80 CALM      29.71S                  
6HR MIN TEMP:  52; 6HR MAX TEMP:  69;                                

OKLAHOMA CITY  CLEAR     57  47  69 SE10      29.70F                  
6HR MIN TEMP:  56; 6HR MAX TEMP:  73;                                


Note: "fair" indicates few or no clouds below 12,000 feet with no
significant weather and/or obstructions to visibility.